(38) Leda
ephemeris date magn radius delta ra dec elong phase
Today27 Jun 202613.63.105 AU2.348 AU21h44m-11°08'130.4°14.4°
Opposition10 Aug 202612.73.071 AU2.059 AU21h15m-11°48'176.1°1.3°
(38) Leda - 2026-06-27
astro.vanbuitenen.nl


 
-1 year
-1 month
-1 day
Now
+1 day
+1 month
+1 year

The interactive orbit chart above shows the body's path through the solar system and its position at the given date. Green and blue lines are shown perpendicular to the ecliptic plane: Green if the path is above the ecliptic plane, blue if it is below. (Left-click and drag to rotate the view; Right-click and drag to move the view; Use scroll wheel to zoom in our out.)

The orbital elements of Leda are:

            e (Eccentricity)                : 0.1508913
            a (Semimajor axis)              : 2.7426246
            i (Inclination)                 : 6.95159
            Ω (Longitude of ascending node) : 295.49318
            ω (Argument of perihelion)      : 169.82712
            M (Mean anomaly)                : 209.10244
            Epoch                           : 2026 Jun 09

            L (Longitude of perihelion)     : 285.39354
            B (Latitude of perihelion)      : 1.22487
            P (Orbital period in years)     : 4.54            
        

The light curve chart below shows the estimated development of the minor planet's magnitude.


The all-sky chart below shows the path of the minor planet over the same period as the light curve. The current position is marked yellow.





The following chart shows the path of the minor planet in the next few days. The field of view is optimized for (~10x50) binoculars and finderscopes.




Ephemerides:
Date       Time       RA (2000)    DEC (2000)    delta   radius  elong  phase   PA    magn
2026-06-27 00:00 UT   21 44 12.7   -11 08 25     2.348    3.105  130.4   14.4   249   13.6 
2026-06-27 08:58 UT   21 44 07.2   -11 08 01     2.344    3.105  130.8   14.3   249   13.6 
2026-06-28 00:00 UT   21 43 57.6   -11 07 23     2.337    3.104  131.4   14.2   249   13.6 
2026-06-29 00:00 UT   21 43 41.1   -11 06 27     2.326    3.104  132.4   14.0   249   13.6 
2026-06-30 00:00 UT   21 43 23.3   -11 05 37     2.315    3.103  133.5   13.8   248   13.6 
2026-07-01 00:00 UT   21 43 04.2   -11 04 53     2.304    3.102  134.5   13.5   248   13.6 
2026-07-02 00:00 UT   21 42 43.9   -11 04 15     2.294    3.102  135.5   13.3   248   13.5 
2026-07-03 00:00 UT   21 42 22.2   -11 03 43     2.283    3.101  136.5   13.0   248   13.5 
2026-07-04 00:00 UT   21 41 59.3   -11 03 18     2.273    3.100  137.6   12.8   248   13.5 
2026-07-05 00:00 UT   21 41 35.1   -11 02 58     2.263    3.100  138.6   12.5   248   13.5 
2026-07-06 00:00 UT   21 41 09.6   -11 02 44     2.253    3.099  139.7   12.3   248   13.5 
2026-07-07 00:00 UT   21 40 42.9   -11 02 36     2.244    3.098  140.7   12.0   248   13.4 
2026-07-08 00:00 UT   21 40 15.0   -11 02 34     2.234    3.098  141.8   11.7   247   13.4 
2026-07-09 00:00 UT   21 39 45.8   -11 02 38     2.225    3.097  142.8   11.4   247   13.4 
2026-07-10 00:00 UT   21 39 15.3   -11 02 48     2.216    3.096  143.9   11.2   247   13.4 
2026-07-11 00:00 UT   21 38 43.7   -11 03 04     2.207    3.095  145.0   10.9   247   13.4 
2026-07-12 00:00 UT   21 38 10.9   -11 03 26     2.199    3.095  146.0   10.6   247   13.3 
2026-07-13 00:00 UT   21 37 36.9   -11 03 53     2.191    3.094  147.1   10.3   247   13.3 
2026-07-14 00:00 UT   21 37 01.7   -11 04 26     2.183    3.093  148.2   10.0   246   13.3 
2026-07-15 00:00 UT   21 36 25.5   -11 05 05     2.175    3.092  149.3    9.7   246   13.3 
2026-07-16 00:00 UT   21 35 48.1   -11 05 49     2.167    3.092  150.4    9.3   246   13.3 
2026-07-17 00:00 UT   21 35 09.6   -11 06 38     2.160    3.091  151.5    9.0   246   13.2 
2026-07-18 00:00 UT   21 34 30.2   -11 07 33     2.152    3.090  152.6    8.7   245   13.2 
2026-07-19 00:00 UT   21 33 49.7   -11 08 33     2.145    3.089  153.7    8.4   245   13.2 
2026-07-20 00:00 UT   21 33 08.2   -11 09 38     2.139    3.089  154.8    8.1   245   13.2 
2026-07-21 00:00 UT   21 32 25.7   -11 10 47     2.132    3.088  155.9    7.7   244   13.1 
2026-07-22 00:00 UT   21 31 42.4   -11 12 02     2.126    3.087  157.0    7.4   244   13.1 
2026-07-23 00:00 UT   21 30 58.1   -11 13 21     2.120    3.086  158.1    7.0   243   13.1 
2026-07-24 00:00 UT   21 30 13.0   -11 14 45     2.115    3.086  159.3    6.7   243   13.1 
2026-07-25 00:00 UT   21 29 27.1   -11 16 12     2.109    3.085  160.4    6.3   242   13.1 
2026-07-26 00:00 UT   21 28 40.4   -11 17 45     2.104    3.084  161.5    6.0   241   13.0 
2026-07-27 00:00 UT   21 27 53.0   -11 19 21     2.099    3.083  162.6    5.6   241   13.0 


    Terminology:
            
    delta:  distance between minor planet and earth in AU
    radius: distance between minor planet and sun in AU
    magn:   magnitude (brightness) estimate    
    ra:     right ascension in hours (24h = 360deg)
    dec:    declination in degrees
    elong:  elongation in degrees (angle sun-earth-minor planet)    
    phase:  phase angle in degrees (angle sun-minor planet-earth)        
    AU:     Astronomical Unit (mean distance between earth and sun: 149597870.7 km
    

Orbital elements provided by the MPC (Minor Planet Center).
Calculations by a modified version of AAPlus, a C# implementation of the AA+ project by PJ Naughter from the algorithms presented in the book "Astronomical Algorithms" by Jean Meeus.
NGC2000 dso catalog and star labels from VizieR as provided by the Strasbourg astronomical Data Center.
Tycho2 catalog from the ESO archive.